Location: Caltech
(34.1382°N, 118.1253°W)
Time: 01:17:46
(UTC-07:00)

Iridium 3 - Visible Passes

Search period start: 21 April 2015 00:00
Search period end: 01 May 2015 00:00
Orbit: 776 x 779 km, 86.4° (Epoch: 20 April)

Date Brightness Start Highest point End Pass type
(mag) Time Alt. Az. Time Alt. Az. Time Alt. Az.
21 Apr 8.1 01:51:01 16° NNE 01:51:01 16° NNE 01:52:01 10° N visible
22 Apr 8.4 01:17:33 12° NNE 01:17:33 12° NNE 01:18:01 10° NNE visible
22 Apr 8.1 02:58:01 12° NNW 02:58:01 12° NNW 02:58:26 10° NNW visible
23 Apr 8.0 02:24:32 16° NNW 02:24:32 16° NNW 02:25:32 10° N visible
24 Apr 8.0 01:51:03 17° N 01:51:03 17° N 01:52:11 10° N visible
25 Apr 8.2 01:17:33 15° NNE 01:17:33 15° NNE 01:18:26 10° NNE visible
26 Apr 8.4 00:44:04 11° NNE 00:44:04 11° NNE 00:44:11 10° NNE visible
26 Apr 8.0 02:24:31 14° NNW 02:24:31 14° NNW 02:25:18 10° NNW visible
27 Apr 8.0 01:51:01 17° N 01:51:01 17° N 01:52:12 10° N visible
28 Apr 8.0 01:17:30 17° N 01:17:30 17° N 01:18:40 10° N visible
29 Apr 8.2 00:43:59 14° NNE 00:43:59 14° NNE 00:44:45 10° NNE visible
29 Apr 8.1 02:24:27 11° NNW 02:24:27 11° NNW 02:24:49 10° NNW visible
30 Apr 8.0 01:50:55 16° NNW 01:50:55 16° NNW 01:52:03 10° NNW visible
